Location: Elende
(51.4317°N, 10.6316°E)
Time: 01:25:03
(UTC+00:00)

In-Cosmos 22 - Pass Details

Date: 18 September 2020
Orbit: 785 x 877 km, 81.2° (Epoch: 23 October)

Event Time Altitude Azimuth Distance (km) Brightness Sun altitude
Rises 19:07:34 0° 345° (NNW) 3,290 7.9 -16.4°
Reaches altitude 10° 19:09:57 10° 342° (NNW) 2,357 7.1 -16.8°
Maximum altitude 19:15:11 66° 262° (W) 865 4.4 -17.5°
Drops below altitude 10° 19:20:27 10° 181° (S) 2,363 6.3 -18.2°
Enters shadow 19:21:26 - 180° (S) 2,743 6.6 -18.4°
